GW7030 Weather Reports


time (UTC)temp
C
wind
direction
speed
KPH
gust
KPH
rain 1hr
cm
rain 24hr
cm
rain mn
cm
humidity
%
barometer
mb
20260504003522 21 38 0.0 3.2 0.00 0.00 0.00 34 1014.9
20260504003053 21 38 0.0 3.2 0.00 0.00 0.00 33 1014.9
20260504002515 21 39 0.0 3.2 0.00 0.00 0.00 33 1014.9
20260504002016 21 39 0.0 4.8 0.00 0.00 0.00 34 1014.9
20260504001814 21 40 0.0 4.8 0.00 0.00 0.00 33 1014.8
20260504001018 21 26 0.0 4.8 0.00 0.00 0.00 33 1014.9
20260504000517 21 25 0.0 4.8 0.00 0.00 0.00 32 1014.9
20260504000057 21 30 0.0 4.8 0.00 0.00 0.00 35 1015.0
20260503235519 21 38 0.0 4.8 0.00 0.00 0.00 33 1015.1
20260503235015 21 305 0.0 4.8 0.00 0.00 0.00 31 1015.1
20260503234550 21 40 0.0 4.8 0.00 0.00 0.00 35 1015.1
20260503234013 22 40 1.6 4.8 0.00 0.00 0.00 34 1015.1
20260503233519 22 40 0.0 4.8 0.00 0.00 0.00 36 1015.3
20260503233052 22 40 1.6 4.8 0.00 0.00 0.00 35 1015.3
20260503232518 22 41 0.0 4.8 0.00 0.00 0.00 34 1015.4
20260503232018 22 41 0.0 4.8 0.00 0.00 0.00 34 1015.4
20260503231550 22 41 1.6 4.8 0.00 0.00 0.00 36 1015.4
20260503231018 22 63 0.0 4.8 0.00 0.00 0.00 37 1015.5
20260503230515 22 38 0.0 4.8 0.00 0.00 0.00 36 1015.6
20260503230058 22 56 0.0 4.8 0.00 0.00 0.00 37 1015.8
20260503225516 22 98 0.0 4.8 0.00 0.00 0.00 39 1015.6
20260503225015 23 98 1.6 4.8 0.00 0.00 0.00 39 1015.8
20260503224539 23 129 0.0 4.8 0.00 0.00 0.00 36 1015.9
20260503224017 23 129 1.6 4.8 0.00 0.00 0.00 37 1016.0
20260503223522 23 97 1.6 6.4 0.00 0.00 0.00 34 1015.9
20260503223051 23 71 1.6 6.4 0.00 0.00 0.00 36 1016.0
20260503222515 24 102 0.0 4.8 0.00 0.00 0.00 32 1016.0
20260503222016 25 139 3.2 4.8 0.00 0.00 0.00 37 1016.1
20260503221546 25 113 1.6 6.4 0.00 0.00 0.00 37 1015.9
20260503221017 25 117 3.2 6.4 0.00 0.00 0.00 36 1016.1
20260503220515 25 133 3.2 6.4 0.00 0.00 0.00 38 1016.3
20260503220050 25 125 3.2 6.4 0.00 0.00 0.00 36 1016.3
20260503215517 25 144 3.2 6.4 0.00 0.00 0.00 38 1016.1
20260503215018 25 151 3.2 6.4 0.00 0.00 0.00 36 1016.4
20260503214558 25 135 3.2 8.0 0.00 0.00 0.00 36 1016.5
20260503214017 26 136 4.8 8.0 0.00 0.00 0.00 35 1016.7
20260503213518 25 133 3.2 6.4 0.00 0.00 0.00 40 1016.6
20260503213058 25 107 1.6 6.4 0.00 0.00 0.00 40 1016.7
20260503212519 25 154 3.2 6.4 0.00 0.00 0.00 38 1016.6
20260503212019 24 38 0.0 4.8 0.00 0.00 0.00 39 1016.8
20260503211556 25 111 1.6 6.4 0.00 0.00 0.00 38 1016.7
20260503211016 25 116 1.6 6.4 0.00 0.00 0.00 41 1016.8
20260503210516 24 158 1.6 4.8 0.00 0.00 0.00 40 1017.0
20260503210106 24 121 1.6 6.4 0.00 0.00 0.00 42 1016.7
20260503205519 23 139 1.6 6.4 0.00 0.00 0.00 44 1016.8
20260503205019 23 90 0.0 6.4 0.00 0.00 0.00 41 1016.8
20260503204557 23 85 1.6 6.4 0.00 0.00 0.00 37 1016.9
20260503204020 24 128 1.6 6.4 0.00 0.00 0.00 39 1016.8
20260503203523 23 174 3.2 6.4 0.00 0.00 0.00 40 1017.0
20260503203049 23 120 1.6 6.4 0.00 0.00 0.00 43 1016.9
20260503202521 22 152 3.2 6.4 0.00 0.00 0.00 43 1017.1
20260503202017 22 142 0.0 6.4 0.00 0.00 0.00 41 1017.1
20260503201557 22 144 1.6 6.4 0.00 0.00 0.00 42 1017.2
20260503201014 22 110 3.2 6.4 0.00 0.00 0.00 42 1017.2
20260503200521 22 131 0.0 4.8 0.00 0.00 0.00 45 1017.3
20260503200101 22 134 1.6 4.8 0.00 0.00 0.00 44 1017.2
20260503195519 22 142 3.2 4.8 0.00 0.00 0.00 45 1017.3
20260503195017 22 149 1.6 4.8 0.00 0.00 0.00 42 1017.3
20260503194621 22 54 0.0 4.8 0.00 0.00 0.00 41 1017.3
20260503194018 22 154 1.6 6.4 0.00 0.00 0.00 43 1017.3
20260503193512 22 135 3.2 6.4 0.00 0.00 0.00 41 1017.3
20260503193053 22 137 3.2 6.4 0.00 0.00 0.00 45 1017.4
20260503192516 22 138 1.6 6.4 0.00 0.00 0.00 44 1017.3
20260503192016 22 149 3.2 6.4 0.00 0.00 0.00 43 1017.3
20260503191613 22 151 3.2 6.4 0.00 0.00 0.00 44 1017.3
20260503191014 22 141 3.2 6.4 0.00 0.00 0.00 45 1017.3
20260503190518 21 154 3.2 6.4 0.00 0.00 0.00 51 1017.3
20260503190059 21 148 3.2 4.8 0.00 0.00 0.00 50 1017.3
20260503185518 21 149 1.6 6.4 0.00 0.00 0.00 49 1017.3
20260503185020 20 149 3.2 6.4 0.00 0.00 0.00 47 1017.4
20260503184557 20 142 1.6 4.8 0.00 0.00 0.00 47 1017.4
20260503184017 20 140 1.6 4.8 0.00 0.00 0.00 48 1017.5
20260503183516 20 144 1.6 4.8 0.00 0.00 0.00 51 1017.4
20260503183106 20 140 1.6 4.8 0.00 0.00 0.00 49 1017.4
20260503182520 20 146 0.0 4.8 0.00 0.00 0.00 53 1017.3
20260503182016 20 142 0.0 4.8 0.00 0.00 0.00 53 1017.2
20260503181605 19 154 0.0 4.8 0.00 0.00 0.00 53 1017.2
20260503181017 19 152 3.2 4.8 0.00 0.00 0.00 52 1017.2
20260503180517 19 156 0.0 4.8 0.00 0.00 0.00 50 1017.3
20260503180054 18 148 1.6 4.8 0.00 0.00 0.00 53 1017.3
20260503175520 18 144 0.0 4.8 0.00 0.00 0.00 52 1017.4
20260503175031 18 143 1.6 4.8 0.00 0.00 0.00 52 1017.3
20260503174616 18 142 0.0 6.4 0.00 0.00 0.00 56 1017.4
20260503174019 18 144 1.6 6.4 0.00 0.00 0.00 53 1017.3
20260503173516 17 148 1.6 4.8 0.00 0.00 0.00 57 1017.2
20260503173054 17 148 1.6 4.8 0.00 0.00 0.00 53 1017.3
20260503172516 17 146 1.6 4.8 0.00 0.00 0.00 54 1017.3
20260503172017 17 150 1.6 4.8 0.00 0.00 0.00 54 1017.2
20260503171556 17 150 0.0 3.2 0.00 0.00 0.00 55 1017.1
20260503171017 17 161 0.0 3.2 0.00 0.00 0.00 53 1017.1
20260503170516 18 161 0.0 3.2 0.00 0.00 0.00 51 1017.1
20260503170110 18 161 0.0 3.2 0.00 0.00 0.00 53 1017.1
20260503150516 18 291 0.0 0.0 0.00 0.00 0.00 38 1017.3
20260503131015 18 291 0.0 1.6 0.00 0.00 0.00 37 1016.9
20260503130515 18 291 0.0 1.6 0.00 0.00 0.00 37 1016.9
20260503110526 17 289 0.0 1.6 0.00 0.00 0.00 34 1017.5
20260503110254 17 289 0.0 1.6 0.00 0.00 0.00 34 1017.6
20260503100112 17 289 0.0 1.6 0.00 0.00 0.00 35 1017.6
20260503090109 17 289 0.0 1.6 0.00 0.00 0.00 35 1017.9
20260503081601 17 288 0.0 1.6 0.00 0.00 0.00 36 1017.9
20260503081016 17 288 0.0 1.6 0.00 0.00 0.00 37 1017.8
20260503080514 17 288 0.0 1.6 0.00 0.00 0.00 38 1018.0
20260503072516 17 288 0.0 1.6 0.00 0.00 0.00 40 1017.9
20260503072027 17 288 0.0 1.6 0.00 0.00 0.00 40 1018.0
20260503071605 17 288 0.0 1.6 0.00 0.00 0.00 39 1018.0
20260503071022 17 288 0.0 3.2 0.00 0.00 0.00 37 1018.1
20260503070518 17 288 0.0 3.2 0.00 0.00 0.00 36 1018.0
20260503055015 18 298 1.6 3.2 0.00 0.00 0.00 36 1017.9
20260503054547 18 298 0.0 3.2 0.00 0.00 0.00 37 1017.9
20260503054015 18 298 0.0 3.2 0.00 0.00 0.00 36 1017.9
20260503053516 18 298 0.0 3.2 0.00 0.00 0.00 38 1018.0
20260503053050 18 298 0.0 3.2 0.00 0.00 0.00 37 1018.0
20260503052519 18 298 0.0 3.2 0.00 0.00 0.00 39 1017.9
20260503052017 18 298 0.0 3.2 0.00 0.00 0.00 38 1018.0
20260503051553 18 298 0.0 3.2 0.00 0.00 0.00 38 1017.9
20260503051016 18 298 0.0 3.2 0.00 0.00 0.00 39 1018.0
20260503050519 18 298 0.0 3.2 0.00 0.00 0.00 39 1018.1
20260503050050 18 298 0.0 3.2 0.00 0.00 0.00 39 1018.0
20260503045519 18 298 0.0 3.2 0.00 0.00 0.00 39 1018.0
20260503045020 18 298 0.0 3.2 0.00 0.00 0.00 39 1017.8
20260503044612 18 298 0.0 3.2 0.00 0.00 0.00 40 1017.8
20260503044032 18 277 0.0 3.2 0.00 0.00 0.00 39 1017.8
20260503043518 18 277 0.0 3.2 0.00 0.00 0.00 40 1017.8
20260503043053 18 277 0.0 3.2 0.00 0.00 0.00 40 1017.8
20260503042520 18 277 0.0 3.2 0.00 0.00 0.00 42 1017.8
20260503042022 18 275 0.0 3.2 0.00 0.00 0.00 40 1017.7
20260503041950 18 275 0.0 3.2 0.00 0.00 0.00 41 1017.7
20260503041017 18 275 0.0 3.2 0.00 0.00 0.00 40 1017.6
20260503040519 18 232 0.0 3.2 0.00 0.00 0.00 41 1017.5
20260503035516 18 232 0.0 3.2 0.00 0.00 0.00 41 1017.5
20260503035016 18 232 0.0 3.2 0.00 0.00 0.00 41 1017.4
20260503034606 18 232 0.0 3.2 0.00 0.00 0.00 41 1017.4
20260503034017 18 232 0.0 3.2 0.00 0.00 0.00 41 1017.2
20260503033521 18 232 1.6 3.2 0.00 0.00 0.00 41 1017.2
20260503033118 18 232 0.0 3.2 0.00 0.00 0.00 41 1017.1
20260503032522 18 232 0.0 3.2 0.00 0.00 0.00 41 1017.1
20260503032022 18 232 0.0 3.2 0.00 0.00 0.00 42 1017.2
20260503031555 18 232 0.0 3.2 0.00 0.00 0.00 43 1017.1
20260503031017 18 232 0.0 3.2 0.00 0.00 0.00 42 1017.1
20260503030518 18 232 0.0 3.2 0.00 0.00 0.00 44 1017.0
20260503030107 17 232 0.0 3.2 0.00 0.00 0.00 42 1017.0
20260503025517 17 232 0.0 3.2 0.00 0.00 0.00 43 1016.9
20260503025019 17 232 0.0 3.2 0.00 0.00 0.00 43 1016.8
20260503024603 17 232 0.0 1.6 0.00 0.00 0.00 43 1016.9
20260503024031 17 232 0.0 1.6 0.00 0.00 0.00 43 1016.8
20260503023516 17 232 0.0 1.6 0.00 0.00 0.00 44 1016.9
20260503023050 17 232 0.0 1.6 0.00 0.00 0.00 43 1016.9
20260503022519 17 232 0.0 1.6 0.00 0.00 0.00 46 1016.9
20260503022030 17 232 0.0 1.6 0.00 0.00 0.00 45 1017.0
20260503021606 18 232 0.0 0.0 0.00 0.00 0.00 51 1016.8
20260503021018 18 232 0.0 0.0 0.00 0.00 0.00 51 1016.8
20260503020516 18 232 0.0 1.6 0.00 0.00 0.00 49 1016.8
20260503020108 18 232 0.0 1.6 0.00 0.00 0.00 46 1016.7
20260503015519 18 232 0.0 0.0 0.00 0.00 0.00 48 1016.7
20260503015013 18 232 0.0 1.6 0.00 0.00 0.00 49 1016.8
20260503014550 18 232 0.0 1.6 0.00 0.00 0.00 50 1016.8
20260503014013 18 232 0.0 0.0 0.00 0.00 0.00 49 1016.9
20260503013517 19 232 0.0 0.0 0.00 0.00 0.00 49 1016.8
20260503013111 19 232 0.0 1.6 0.00 0.00 0.00 48 1016.8
20260503012524 19 232 0.0 1.6 0.00 0.00 0.00 49 1016.8
20260503012025 19 233 0.0 1.6 0.00 0.00 0.00 51 1016.8
20260503011609 19 233 0.0 1.6 0.00 0.00 0.00 49 1016.9
20260503011020 20 233 0.0 3.2 0.00 0.00 0.00 48 1017.0
20260503010518 20 233 0.0 3.2 0.00 0.00 0.00 49 1017.0
20260503010050 20 233 0.0 1.6 0.00 0.00 0.00 47 1017.0
20260503005516 20 233 0.0 1.6 0.00 0.00 0.00 48 1017.1
20260503005111 20 233 0.0 1.6 0.00 0.00 0.00 52 1017.2
20260503004550 20 129 0.0 3.2 0.00 0.00 0.00 48 1017.1
20260503004017 20 129 1.6 3.2 0.00 0.00 0.00 49 1017.1